Time,TemperatureF,DewpointF,PressureIn,WindDirection,WindDirectionDegrees,WindSpeedMPH,WindSpeedGustMPH,Humidity,HourlyPrecipIn,Conditions,Clouds,dailyrainin,SoftwareType,DateUTC
2013-01-30 00:00:00,37.7,36.9,30.10,South,173,0.0,0.0,97,0.00,,,0.08,WeatherDisplay:10.37,2013-01-30 05:00:00,
2013-01-30 00:02:00,37.8,37.0,30.09,South,173,0.0,0.0,97,0.00,RA,,0.00,WeatherDisplay:10.37,2013-01-30 05:02:00,
2013-01-30 00:03:00,37.8,37.0,30.10,South,173,0.0,0.0,97,0.00,RA,,0.00,WeatherDisplay:10.37,2013-01-30 05:03:00,
2013-01-30 00:08:00,37.9,37.1,30.09,South,173,0.0,0.0,97,0.00,RA,,0.00,WeatherDisplay:10.37,2013-01-30 05:08:00,
2013-01-30 00:13:00,37.9,37.1,30.09,South,173,0.0,0.0,97,0.00,,,0.00,WeatherDisplay:10.37,2013-01-30 05:13:00,
2013-01-30 00:18:00,37.9,37.1,30.09,South,173,2.3,2.3,97,0.00,,,0.00,WeatherDisplay:10.37,2013-01-30 05:18:00,
2013-01-30 00:23:00,37.8,37.0,30.08,South,173,0.0,0.0,97,0.00,,,0.00,WeatherDisplay:10.37,2013-01-30 05:23:00,
2013-01-30 00:28:00,37.8,37.0,30.08,South,173,0.0,0.0,97,0.00,,,0.00,WeatherDisplay:10.37,2013-01-30 05:28:00,
2013-01-30 00:33:00,37.9,37.1,30.08,South,173,0.0,0.0,97,0.00,,,0.00,WeatherDisplay:10.37,2013-01-30 05:33:00,
2013-01-30 00:38:00,38.0,37.2,30.08,South,173,0.0,0.0,97,0.00,,,0.00,WeatherDisplay:10.37,2013-01-30 05:38:00,
2013-01-30 00:43:00,38.1,37.6,30.07,South,173,0.0,0.0,98,0.00,,,0.00,WeatherDisplay:10.37,2013-01-30 05:43:00,
2013-01-30 00:48:00,38.2,37.7,30.07,South,173,0.0,0.0,98,0.00,,,0.00,WeatherDisplay:10.37,2013-01-30 05:48:00,
2013-01-30 00:53:00,38.2,37.7,30.06,South,173,2.3,0.0,98,0.00,,,0.00,WeatherDisplay:10.37,2013-01-30 05:53:00,
2013-01-30 00:58:00,38.2,37.4,30.06,South,190,3.5,3.5,97,0.00,,,0.00,WeatherDisplay:10.37,2013-01-30 05:58:00,
2013-01-30 01:03:00,38.2,37.4,30.06,South,190,2.0,2.0,97,0.00,,,0.00,WeatherDisplay:10.37,2013-01-30 06:03:00,
2013-01-30 01:08:00,38.2,37.4,30.06,South,190,3.5,3.5,97,0.00,,,0.00,WeatherDisplay:10.37,2013-01-30 06:08:00,
2013-01-30 01:13:00,38.2,37.4,30.06,South,190,1.1,1.1,97,0.00,,,0.00,WeatherDisplay:10.37,2013-01-30 06:13:00,
2013-01-30 01:18:00,38.2,37.4,30.06,South,191,1.0,1.0,97,0.00,,,0.00,WeatherDisplay:10.37,2013-01-30 06:18:00,
2013-01-30 01:23:00,38.2,37.4,30.05,South,191,0.0,0.0,97,0.00,,,0.00,WeatherDisplay:10.37,2013-01-30 06:23:00,
2013-01-30 01:28:00,38.2,37.4,30.04,South,191,2.3,2.3,97,0.00,,,0.00,WeatherDisplay:10.37,2013-01-30 06:28:00,
2013-01-30 01:33:00,38.2,37.4,30.04,South,191,0.0,0.0,97,0.00,,,0.00,WeatherDisplay:10.37,2013-01-30 06:33:00,
2013-01-30 01:38:00,38.3,37.8,30.04,South,191,0.0,0.0,98,0.00,,,0.00,WeatherDisplay:10.37,2013-01-30 06:38:00,
2013-01-30 01:43:00,38.4,37.9,30.04,South,191,1.1,0.0,98,0.00,,,0.00,WeatherDisplay:10.37,2013-01-30 06:43:00,
2013-01-30 01:48:00,38.5,38.0,30.04,South,191,1.1,1.1,98,0.00,,,0.00,WeatherDisplay:10.37,2013-01-30 06:48:00,
2013-01-30 01:53:00,38.6,38.1,30.03,South,191,2.3,2.3,98,0.00,,,0.00,WeatherDisplay:10.37,2013-01-30 06:53:00,
2013-01-30 01:58:00,38.7,38.2,30.03,South,191,1.1,1.1,98,0.00,,,0.00,WeatherDisplay:10.37,2013-01-30 06:58:00,
2013-01-30 02:03:00,38.8,38.3,30.02,South,191,1.1,1.1,98,0.00,,,0.00,WeatherDisplay:10.37,2013-01-30 07:03:00,
2013-01-30 02:08:00,38.8,38.3,30.02,South,191,1.0,1.0,98,0.00,,,0.00,WeatherDisplay:10.37,2013-01-30 07:08:00,
2013-01-30 02:13:00,38.8,38.3,30.02,South,191,0.0,0.0,98,0.00,,,0.00,WeatherDisplay:10.37,2013-01-30 07:13:00,
2013-01-30 02:18:00,38.9,38.4,30.02,South,191,0.0,0.0,98,0.00,,,0.00,WeatherDisplay:10.37,2013-01-30 07:18:00,
2013-01-30 02:23:00,38.9,38.4,30.02,South,191,2.3,2.3,98,0.00,,,0.00,WeatherDisplay:10.37,2013-01-30 07:23:00,
2013-01-30 02:28:00,38.9,38.4,30.01,South,191,1.1,0.0,98,0.00,,,0.00,WeatherDisplay:10.37,2013-01-30 07:28:00,
2013-01-30 02:33:00,38.9,38.4,30.01,South,191,2.0,2.0,98,0.00,,,0.00,WeatherDisplay:10.37,2013-01-30 07:33:00,
2013-01-30 02:38:00,39.0,38.5,30.01,South,191,3.5,3.5,98,0.00,,,0.00,WeatherDisplay:10.37,2013-01-30 07:38:00,
2013-01-30 02:43:00,39.0,38.5,30.01,South,191,0.0,0.0,98,0.00,,,0.00,WeatherDisplay:10.37,2013-01-30 07:43:00,
2013-01-30 02:48:00,39.1,38.6,30.01,South,191,0.0,0.0,98,0.00,,,0.00,WeatherDisplay:10.37,2013-01-30 07:48:00,
2013-01-30 02:53:00,39.1,38.6,30.01,South,190,3.5,3.5,98,0.00,,,0.00,WeatherDisplay:10.37,2013-01-30 07:53:00,
2013-01-30 02:58:00,39.1,38.6,30.01,South,190,0.0,0.0,98,0.00,,,0.00,WeatherDisplay:10.37,2013-01-30 07:58:00,
2013-01-30 03:03:00,39.2,38.7,30.00,South,190,0.0,0.0,98,0.00,,,0.00,WeatherDisplay:10.37,2013-01-30 08:03:00,
2013-01-30 03:08:00,39.2,38.7,30.00,South,190,1.0,0.0,98,0.00,,,0.00,WeatherDisplay:10.37,2013-01-30 08:08:00,
2013-01-30 03:13:00,39.1,38.6,30.00,South,190,0.0,0.0,98,0.00,,,0.00,WeatherDisplay:10.37,2013-01-30 08:13:00,
2013-01-30 03:18:00,39.1,38.6,29.99,South,190,0.0,0.0,98,0.00,,,0.00,WeatherDisplay:10.37,2013-01-30 08:18:00,
2013-01-30 03:23:00,39.1,38.6,29.99,South,190,0.0,0.0,98,0.00,,,0.00,WeatherDisplay:10.37,2013-01-30 08:23:00,
2013-01-30 03:28:00,39.0,38.5,29.99,South,190,0.0,0.0,98,0.00,,,0.00,WeatherDisplay:10.37,2013-01-30 08:28:00,
2013-01-30 03:33:00,38.9,38.4,29.99,South,190,0.0,0.0,98,0.00,,,0.00,WeatherDisplay:10.37,2013-01-30 08:33:00,
2013-01-30 03:38:00,38.8,38.3,29.98,South,190,0.0,0.0,98,0.00,,,0.00,WeatherDisplay:10.37,2013-01-30 08:38:00,
2013-01-30 03:43:00,38.8,38.3,29.98,South,190,0.0,0.0,98,0.00,,,0.00,WeatherDisplay:10.37,2013-01-30 08:43:00,
2013-01-30 03:48:00,38.8,38.3,29.98,South,190,0.0,0.0,98,0.00,,,0.00,WeatherDisplay:10.37,2013-01-30 08:48:00,
2013-01-30 03:53:00,38.8,38.3,29.97,South,190,0.0,0.0,98,0.00,,,0.00,WeatherDisplay:10.37,2013-01-30 08:53:00,
2013-01-30 03:58:00,38.8,38.3,29.97,South,190,0.0,0.0,98,0.00,,,0.00,WeatherDisplay:10.37,2013-01-30 08:58:00,
2013-01-30 04:03:00,38.8,38.3,29.97,South,190,0.0,0.0,98,0.00,,,0.00,WeatherDisplay:10.37,2013-01-30 09:03:00,
2013-01-30 04:08:00,38.8,38.3,29.96,South,190,0.0,0.0,98,0.00,,,0.00,WeatherDisplay:10.37,2013-01-30 09:08:00,
2013-01-30 04:13:00,38.8,38.3,29.96,South,190,0.0,0.0,98,0.00,,,0.00,WeatherDisplay:10.37,2013-01-30 09:13:00,
2013-01-30 04:18:00,38.8,38.3,29.96,South,190,0.0,0.0,98,0.00,,,0.00,WeatherDisplay:10.37,2013-01-30 09:18:00,
2013-01-30 04:23:00,38.9,38.4,29.96,South,190,0.0,0.0,98,0.00,,,0.00,WeatherDisplay:10.37,2013-01-30 09:23:00,
2013-01-30 04:28:00,38.9,38.4,29.96,South,190,0.0,0.0,98,0.00,,,0.00,WeatherDisplay:10.37,2013-01-30 09:28:00,
2013-01-30 04:33:00,38.9,38.4,29.95,South,190,0.0,0.0,98,0.00,,,0.00,WeatherDisplay:10.37,2013-01-30 09:33:00,
2013-01-30 04:38:00,38.9,38.4,29.95,South,190,0.0,0.0,98,0.00,,,0.00,WeatherDisplay:10.37,2013-01-30 09:38:00,
2013-01-30 04:43:00,38.8,38.3,29.95,South,190,0.0,0.0,98,0.00,,,0.00,WeatherDisplay:10.37,2013-01-30 09:43:00,
2013-01-30 04:48:00,38.8,38.3,29.94,South,190,0.0,0.0,98,0.00,,,0.00,WeatherDisplay:10.37,2013-01-30 09:48:00,
2013-01-30 04:53:00,38.9,38.4,29.94,South,190,0.0,0.0,98,0.00,,,0.00,WeatherDisplay:10.37,2013-01-30 09:53:00,
2013-01-30 04:58:00,38.9,38.4,29.94,South,190,0.0,0.0,98,0.00,,,0.00,WeatherDisplay:10.37,2013-01-30 09:58:00,
2013-01-30 05:03:00,38.9,38.4,29.94,South,190,0.0,0.0,98,0.00,,,0.00,WeatherDisplay:10.37,2013-01-30 10:03:00,
2013-01-30 05:08:00,39.0,38.5,29.94,South,190,0.0,0.0,98,0.00,,,0.00,WeatherDisplay:10.37,2013-01-30 10:08:00,
2013-01-30 05:13:00,39.1,38.6,29.94,South,190,0.0,0.0,98,0.00,,,0.00,WeatherDisplay:10.37,2013-01-30 10:13:00,
2013-01-30 05:18:00,39.2,38.7,29.94,South,190,0.0,0.0,98,0.00,,,0.00,WeatherDisplay:10.37,2013-01-30 10:18:00,
2013-01-30 05:23:00,39.1,38.6,29.94,South,190,0.0,0.0,98,0.00,,,0.00,WeatherDisplay:10.37,2013-01-30 10:23:00,
2013-01-30 05:28:00,39.1,38.6,29.94,South,190,0.0,0.0,98,0.00,,,0.00,WeatherDisplay:10.37,2013-01-30 10:28:00,
2013-01-30 05:33:00,39.1,38.6,29.94,South,190,0.0,0.0,98,0.00,,,0.00,WeatherDisplay:10.37,2013-01-30 10:33:00,
2013-01-30 05:38:00,39.2,38.7,29.94,South,190,0.0,0.0,98,0.00,,,0.00,WeatherDisplay:10.37,2013-01-30 10:38:00,
2013-01-30 05:43:00,39.2,38.7,29.94,South,190,0.0,0.0,98,0.00,,,0.00,WeatherDisplay:10.37,2013-01-30 10:43:00,
2013-01-30 05:48:00,39.3,38.8,29.94,South,190,0.0,0.0,98,0.00,,,0.00,WeatherDisplay:10.37,2013-01-30 10:48:00,
2013-01-30 05:53:00,39.4,38.9,29.94,South,190,2.3,0.0,98,0.00,,,0.00,WeatherDisplay:10.37,2013-01-30 10:53:00,
2013-01-30 05:58:00,39.5,39.0,29.93,South,190,0.0,0.0,98,0.00,,,0.00,WeatherDisplay:10.37,2013-01-30 10:58:00,
2013-01-30 06:03:00,39.6,39.1,29.93,South,190,2.3,2.3,98,0.00,,,0.00,WeatherDisplay:10.37,2013-01-30 11:03:00,
2013-01-30 06:08:00,39.6,39.1,29.93,South,190,0.0,0.0,98,0.00,,,0.00,WeatherDisplay:10.37,2013-01-30 11:08:00,
2013-01-30 06:13:00,39.8,39.3,29.92,South,190,2.0,2.0,98,0.00,,,0.00,WeatherDisplay:10.37,2013-01-30 11:13:00,
2013-01-30 06:18:00,40.0,39.5,29.93,South,190,0.0,0.0,98,0.00,,,0.00,WeatherDisplay:10.37,2013-01-30 11:18:00,
2013-01-30 06:23:00,40.1,39.6,29.92,South,190,0.0,0.0,98,0.00,,,0.00,WeatherDisplay:10.37,2013-01-30 11:23:00,
2013-01-30 06:28:00,40.2,39.7,29.92,South,190,1.1,1.1,98,0.00,,,0.00,WeatherDisplay:10.37,2013-01-30 11:28:00,
2013-01-30 06:33:00,40.4,39.9,29.92,South,190,1.1,0.0,98,0.00,,,0.00,WeatherDisplay:10.37,2013-01-30 11:33:00,
2013-01-30 06:38:00,40.6,40.1,29.91,South,190,3.5,3.5,98,0.00,,,0.00,WeatherDisplay:10.37,2013-01-30 11:38:00,
2013-01-30 06:43:00,40.9,40.6,29.91,SSW,209,3.5,3.5,99,0.00,,,0.00,WeatherDisplay:10.37,2013-01-30 11:43:00,
2013-01-30 06:48:00,41.5,41.2,29.91,South,185,2.0,2.0,99,0.00,,,0.00,WeatherDisplay:10.37,2013-01-30 11:48:00,
2013-01-30 06:53:00,42.2,41.9,29.90,SSE,162,3.5,3.5,99,0.00,,,0.00,WeatherDisplay:10.37,2013-01-30 11:53:00,
2013-01-30 06:58:00,42.6,42.3,29.91,SSE,164,4.6,0.0,99,0.00,,,0.00,WeatherDisplay:10.37,2013-01-30 11:58:00,
2013-01-30 07:03:00,42.8,42.5,29.90,SSW,207,4.6,4.6,99,0.00,,,0.00,WeatherDisplay:10.37,2013-01-30 12:03:00,
2013-01-30 07:08:00,43.0,42.7,29.90,SSW,208,3.5,3.5,99,0.00,,,0.00,WeatherDisplay:10.37,2013-01-30 12:08:00,
2013-01-30 07:13:00,43.1,42.8,29.90,SSW,205,2.3,0.0,99,0.00,,,0.00,WeatherDisplay:10.37,2013-01-30 12:13:00,
2013-01-30 07:18:00,43.2,42.9,29.89,South,173,4.0,4.0,99,0.00,,,0.00,WeatherDisplay:10.37,2013-01-30 12:18:00,
2013-01-30 07:23:00,43.4,43.1,29.90,SSW,205,4.6,4.6,99,0.00,,,0.00,WeatherDisplay:10.37,2013-01-30 12:23:00,
2013-01-30 07:28:00,43.5,43.2,29.90,SW,225,3.5,3.5,99,0.00,,,0.00,WeatherDisplay:10.37,2013-01-30 12:28:00,
2013-01-30 07:33:00,43.7,43.4,29.90,SW,219,3.5,3.5,99,0.00,,,0.00,WeatherDisplay:10.37,2013-01-30 12:33:00,
2013-01-30 07:38:00,43.8,43.5,29.89,SW,228,2.3,0.0,99,0.00,,,0.00,WeatherDisplay:10.37,2013-01-30 12:38:00,
2013-01-30 07:43:00,43.9,43.6,29.89,SW,228,0.0,0.0,99,0.00,,,0.00,WeatherDisplay:10.37,2013-01-30 12:43:00,
2013-01-30 07:48:00,44.0,43.7,29.88,SW,228,2.3,0.0,99,0.00,,,0.00,WeatherDisplay:10.37,2013-01-30 12:48:00,
2013-01-30 07:53:00,44.0,43.7,29.88,SW,227,3.5,3.5,99,0.00,,,0.00,WeatherDisplay:10.37,2013-01-30 12:53:00,
2013-01-30 07:58:00,44.2,43.9,29.89,SW,227,3.5,3.5,99,0.00,,,0.00,WeatherDisplay:10.37,2013-01-30 12:58:00,
2013-01-30 08:03:00,44.3,44.0,29.89,SW,217,4.6,4.6,99,0.00,,,0.00,WeatherDisplay:10.37,2013-01-30 13:03:00,
2013-01-30 08:08:00,44.5,44.2,29.89,SW,217,1.1,1.1,99,0.00,,,0.00,WeatherDisplay:10.37,2013-01-30 13:08:00,
2013-01-30 08:13:00,44.6,44.3,29.89,SW,227,3.0,3.0,99,0.00,,,0.00,WeatherDisplay:10.37,2013-01-30 13:13:00,
2013-01-30 08:18:00,44.7,44.4,29.88,SSW,213,3.5,3.5,99,0.00,,,0.00,WeatherDisplay:10.37,2013-01-30 13:18:00,
2013-01-30 08:23:00,44.7,44.7,29.88,SSW,213,0.0,0.0,100,0.00,,,0.00,WeatherDisplay:10.37,2013-01-30 13:23:00,
2013-01-30 08:28:00,44.7,44.4,29.88,SSW,213,2.3,2.3,99,0.00,,,0.00,WeatherDisplay:10.37,2013-01-30 13:28:00,
2013-01-30 08:33:00,44.8,44.5,29.87,South,173,5.0,5.0,99,0.00,,,0.00,WeatherDisplay:10.37,2013-01-30 13:33:00,
2013-01-30 08:38:00,44.8,44.5,29.87,SSE,163,2.3,0.0,99,0.00,,,0.00,WeatherDisplay:10.37,2013-01-30 13:38:00,
2013-01-30 08:43:00,45.0,45.0,29.86,SSW,194,2.0,2.0,100,0.00,,,0.00,WeatherDisplay:10.37,2013-01-30 13:43:00,
2013-01-30 08:48:00,45.0,44.7,29.87,SSW,194,2.3,2.3,99,0.00,,,0.00,WeatherDisplay:10.37,2013-01-30 13:48:00,
2013-01-30 08:53:00,45.1,44.8,29.86,South,175,2.3,2.3,99,0.00,,,0.00,WeatherDisplay:10.37,2013-01-30 13:53:00,
2013-01-30 08:58:00,45.2,44.9,29.86,South,171,3.5,3.5,99,0.00,,,0.00,WeatherDisplay:10.37,2013-01-30 13:58:00,
2013-01-30 09:03:00,45.4,45.4,29.85,SSE,159,3.5,3.5,100,0.00,,,0.00,WeatherDisplay:10.37,2013-01-30 14:03:00,
2013-01-30 09:08:00,45.6,45.6,29.85,South,173,1.1,1.1,100,0.00,,,0.00,WeatherDisplay:10.37,2013-01-30 14:08:00,
2013-01-30 09:13:00,45.7,45.7,29.86,SE,134,4.0,4.0,100,0.00,,,0.00,WeatherDisplay:10.37,2013-01-30 14:13:00,
2013-01-30 09:18:00,45.8,45.8,29.85,SSE,163,2.3,2.3,100,0.00,,,0.00,WeatherDisplay:10.37,2013-01-30 14:18:00,
2013-01-30 09:23:00,45.9,45.9,29.85,SSE,150,2.3,0.0,100,0.00,,,0.00,WeatherDisplay:10.37,2013-01-30 14:23:00,
2013-01-30 09:28:00,45.9,45.9,29.85,SSE,155,5.8,5.8,100,0.00,,,0.00,WeatherDisplay:10.37,2013-01-30 14:28:00,
2013-01-30 09:33:00,45.9,45.9,29.85,SSE,157,3.5,3.5,100,0.00,,,0.00,WeatherDisplay:10.37,2013-01-30 14:33:00,
2013-01-30 09:38:00,45.9,45.9,29.84,South,175,2.3,2.3,100,0.00,,,0.00,WeatherDisplay:10.37,2013-01-30 14:38:00,
2013-01-30 09:43:00,45.9,45.9,29.84,South,188,6.9,6.9,100,0.00,,,0.00,WeatherDisplay:10.37,2013-01-30 14:43:00,
2013-01-30 09:48:00,46.0,46.0,29.83,SE,140,4.6,4.6,100,0.00,,,0.00,WeatherDisplay:10.37,2013-01-30 14:48:00,
2013-01-30 09:53:00,46.0,46.0,29.83,SE,143,5.8,5.8,100,0.00,,,0.00,WeatherDisplay:10.37,2013-01-30 14:53:00,
2013-01-30 09:58:00,46.1,46.1,29.83,SSE,152,5.8,5.8,100,0.00,,,0.00,WeatherDisplay:10.37,2013-01-30 14:58:00,
2013-01-30 10:03:00,46.2,46.2,29.83,SSE,150,3.5,3.5,100,0.00,,,0.00,WeatherDisplay:10.37,2013-01-30 15:03:00,
2013-01-30 10:08:00,46.3,46.3,29.83,SE,146,5.8,5.8,100,0.00,,,0.00,WeatherDisplay:10.37,2013-01-30 15:08:00,
2013-01-30 10:13:00,46.4,46.4,29.83,SE,146,6.0,6.0,100,0.00,,,0.00,WeatherDisplay:10.37,2013-01-30 15:13:00,
2013-01-30 10:18:00,46.5,46.5,29.83,South,173,4.6,4.6,100,0.00,,,0.00,WeatherDisplay:10.37,2013-01-30 15:18:00,
2013-01-30 10:23:00,46.6,46.6,29.82,SSE,168,5.0,5.0,100,0.00,,,0.00,WeatherDisplay:10.37,2013-01-30 15:23:00,
2013-01-30 10:28:00,46.7,46.7,29.81,SSE,147,4.0,4.0,100,0.00,,,0.00,WeatherDisplay:10.37,2013-01-30 15:28:00,
2013-01-30 10:33:00,46.8,46.8,29.81,SSE,165,5.8,5.8,100,0.00,,,0.00,WeatherDisplay:10.37,2013-01-30 15:33:00,
2013-01-30 10:38:00,46.9,46.9,29.81,South,182,3.5,3.5,100,0.00,,,0.00,WeatherDisplay:10.37,2013-01-30 15:38:00,
2013-01-30 10:43:00,47.0,47.0,29.81,SSW,211,2.0,2.0,100,0.00,,,0.00,WeatherDisplay:10.37,2013-01-30 15:43:00,
2013-01-30 10:48:00,47.1,47.1,29.80,South,180,6.9,6.9,100,0.00,,,0.00,WeatherDisplay:10.37,2013-01-30 15:48:00,
2013-01-30 10:53:00,47.3,47.3,29.79,SSW,202,6.0,6.0,100,0.00,,,0.00,WeatherDisplay:10.37,2013-01-30 15:53:00,
2013-01-30 10:58:00,47.5,47.5,29.78,SSE,156,10.0,10.0,100,0.00,,,0.00,WeatherDisplay:10.37,2013-01-30 15:58:00,
2013-01-30 11:03:00,47.7,47.7,29.78,SSE,163,9.2,9.2,100,0.00,,,0.00,WeatherDisplay:10.37,2013-01-30 16:03:00,
2013-01-30 11:08:00,47.9,47.9,29.79,South,171,4.6,5.0,100,0.00,,,0.00,WeatherDisplay:10.37,2013-01-30 16:08:00,
2013-01-30 11:13:00,48.2,48.2,29.78,SE,130,3.5,3.5,100,0.00,,,0.00,WeatherDisplay:10.37,2013-01-30 16:13:00,
2013-01-30 11:18:00,48.7,48.7,29.77,South,182,6.9,6.9,100,0.00,,,0.00,WeatherDisplay:10.37,2013-01-30 16:18:00,
2013-01-30 11:23:00,49.1,49.1,29.77,SSE,167,6.0,6.0,100,0.00,,,0.00,WeatherDisplay:10.37,2013-01-30 16:23:00,
2013-01-30 11:28:00,49.4,49.4,29.77,SSE,153,5.8,5.8,100,0.00,,,0.00,WeatherDisplay:10.37,2013-01-30 16:28:00,
2013-01-30 11:33:00,49.5,49.5,29.78,SSE,150,5.0,5.0,100,0.00,,,0.00,WeatherDisplay:10.37,2013-01-30 16:33:00,
2013-01-30 11:38:00,49.5,49.5,29.78,SSE,147,4.0,4.0,100,0.00,,,0.00,WeatherDisplay:10.37,2013-01-30 16:38:00,
2013-01-30 11:43:00,49.8,49.8,29.77,SSE,157,3.5,3.5,100,0.00,,,0.00,WeatherDisplay:10.37,2013-01-30 16:43:00,
2013-01-30 11:48:00,50.0,50.0,29.76,South,184,5.8,5.8,100,0.00,,,0.00,WeatherDisplay:10.37,2013-01-30 16:48:00,
2013-01-30 11:53:00,50.2,50.2,29.75,SSW,202,4.6,4.6,100,0.00,,,0.00,WeatherDisplay:10.37,2013-01-30 16:53:00,
2013-01-30 11:58:00,50.3,50.3,29.75,SE,140,5.8,5.8,100,0.00,,,0.00,WeatherDisplay:10.37,2013-01-30 16:58:00,
2013-01-30 12:03:00,50.3,50.3,29.75,SE,144,3.5,3.5,100,0.00,,,0.00,WeatherDisplay:10.37,2013-01-30 17:03:00,
2013-01-30 12:08:00,50.5,50.5,29.74,South,184,4.6,4.6,100,0.00,,,0.00,WeatherDisplay:10.37,2013-01-30 17:08:00,
2013-01-30 12:13:00,50.7,50.7,29.74,South,173,6.0,6.0,100,0.00,,,0.00,WeatherDisplay:10.37,2013-01-30 17:13:00,
2013-01-30 12:18:00,51.1,51.1,29.72,SE,140,5.8,5.8,100,0.00,,,0.00,WeatherDisplay:10.37,2013-01-30 17:18:00,
2013-01-30 12:23:00,51.5,51.5,29.72,SSW,205,6.9,6.9,100,0.00,,,0.00,WeatherDisplay:10.37,2013-01-30 17:23:00,
2013-01-30 12:28:00,51.8,51.8,29.72,SE,131,8.0,8.0,100,0.00,,,0.00,WeatherDisplay:10.37,2013-01-30 17:28:00,
2013-01-30 12:33:00,51.7,51.7,29.72,SSE,166,8.1,8.1,100,0.00,,,0.00,WeatherDisplay:10.37,2013-01-30 17:33:00,
2013-01-30 12:38:00,51.5,51.5,29.72,SE,135,6.9,6.9,100,0.00,,,0.00,WeatherDisplay:10.37,2013-01-30 17:38:00,
2013-01-30 12:43:00,51.5,51.5,29.72,South,189,6.9,6.9,100,0.00,,,0.00,WeatherDisplay:10.37,2013-01-30 17:43:00,
2013-01-30 12:48:00,51.4,51.4,29.72,SSE,150,4.0,4.0,100,0.00,,,0.00,WeatherDisplay:10.37,2013-01-30 17:48:00,
2013-01-30 12:53:00,51.3,51.3,29.72,SSE,167,7.0,7.0,100,0.00,,,0.00,WeatherDisplay:10.37,2013-01-30 17:53:00,
2013-01-30 12:58:00,51.2,51.2,29.71,SE,128,3.5,0.0,100,0.00,,,0.00,WeatherDisplay:10.37,2013-01-30 17:58:00,
2013-01-30 13:04:00,51.2,50.9,29.70,SSE,162,6.0,6.0,99,0.00,,,0.00,WeatherDisplay:10.37,2013-01-30 18:04:00,
2013-01-30 13:09:00,51.3,51.0,29.70,SSE,156,5.0,5.0,99,0.00,,,0.00,WeatherDisplay:10.37,2013-01-30 18:09:00,
2013-01-30 13:14:00,51.5,51.2,29.70,SSE,148,5.8,5.8,99,0.00,,,0.00,WeatherDisplay:10.37,2013-01-30 18:14:00,
2013-01-30 13:19:00,51.6,51.3,29.69,SSE,150,5.8,5.8,99,0.00,,,0.00,WeatherDisplay:10.37,2013-01-30 18:19:00,
2013-01-30 13:24:00,51.7,51.4,29.69,SSE,149,7.0,7.0,99,0.00,,,0.00,WeatherDisplay:10.37,2013-01-30 18:24:00,
2013-01-30 13:29:00,51.7,51.4,29.68,SE,135,6.0,6.0,99,0.00,,,0.00,WeatherDisplay:10.37,2013-01-30 18:29:00,
2013-01-30 13:34:00,51.9,51.6,29.68,South,175,5.8,5.8,99,0.00,,,0.00,WeatherDisplay:10.37,2013-01-30 18:34:00,
2013-01-30 13:39:00,51.9,51.6,29.67,ESE,123,9.2,9.2,99,0.00,,,0.00,WeatherDisplay:10.37,2013-01-30 18:39:00,
2013-01-30 13:44:00,51.8,51.3,29.67,SSE,155,11.5,11.5,98,0.00,,,0.00,WeatherDisplay:10.37,2013-01-30 18:44:00,
2013-01-30 13:49:00,51.8,51.3,29.67,ESE,117,6.0,6.0,98,0.00,,,0.00,WeatherDisplay:10.37,2013-01-30 18:49:00,
2013-01-30 13:54:00,51.7,51.2,29.67,SE,129,8.1,8.1,98,0.00,,,0.00,WeatherDisplay:10.37,2013-01-30 18:54:00,
2013-01-30 13:59:00,51.7,51.2,29.67,South,184,5.8,5.8,98,0.00,,,0.00,WeatherDisplay:10.37,2013-01-30 18:59:00,
2013-01-30 14:04:00,51.8,51.3,29.67,SSE,152,6.0,6.0,98,0.00,OVC,,0.00,WeatherDisplay:10.37,2013-01-30 19:04:00,
2013-01-30 14:09:00,51.9,51.4,29.67,SE,145,6.9,6.9,98,0.00,OVC,,0.00,WeatherDisplay:10.37,2013-01-30 19:09:00,
2013-01-30 14:14:00,52.0,51.5,29.66,ESE,123,5.8,5.8,98,0.00,OVC,,0.00,WeatherDisplay:10.37,2013-01-30 19:14:00,
2013-01-30 14:19:00,52.1,51.6,29.66,SSE,154,4.6,4.6,98,0.00,OVC,,0.00,WeatherDisplay:10.37,2013-01-30 19:19:00,
2013-01-30 14:24:00,52.2,51.7,29.65,South,169,4.0,4.0,98,0.00,OVC,,0.00,WeatherDisplay:10.37,2013-01-30 19:24:00,
2013-01-30 14:29:00,52.3,51.8,29.65,SW,215,9.2,9.2,98,0.00,OVC,,0.00,WeatherDisplay:10.37,2013-01-30 19:29:00,
2013-01-30 14:34:00,52.3,51.8,29.65,SE,144,8.1,8.1,98,0.00,OVC,,0.00,WeatherDisplay:10.37,2013-01-30 19:34:00,
2013-01-30 14:39:00,52.4,51.9,29.64,SSW,193,6.9,6.9,98,0.00,OVC,,0.00,WeatherDisplay:10.37,2013-01-30 19:39:00,
2013-01-30 14:44:00,52.4,51.9,29.64,South,186,5.8,5.8,98,0.00,OVC,,0.00,WeatherDisplay:10.37,2013-01-30 19:44:00,
2013-01-30 14:49:00,52.4,51.9,29.64,SSW,196,6.9,6.9,98,0.00,OVC,,0.00,WeatherDisplay:10.37,2013-01-30 19:49:00,
2013-01-30 14:54:00,52.4,51.9,29.64,SSW,196,10.4,10.4,98,0.00,OVC,,0.00,WeatherDisplay:10.37,2013-01-30 19:54:00,
2013-01-30 14:59:00,52.3,51.8,29.65,SW,221,4.0,4.0,98,0.00,OVC,,0.00,WeatherDisplay:10.37,2013-01-30 19:59:00,
2013-01-30 15:04:00,52.2,51.7,29.64,SSW,194,4.6,4.6,98,0.00,,,0.00,WeatherDisplay:10.37,2013-01-30 20:04:00,
2013-01-30 15:09:00,52.1,51.3,29.64,SSW,198,3.5,3.5,97,0.00,,,0.00,WeatherDisplay:10.37,2013-01-30 20:09:00,
2013-01-30 15:14:00,52.0,51.2,29.64,SSE,148,4.6,4.6,97,0.00,OVC,,0.00,WeatherDisplay:10.37,2013-01-30 20:14:00,
2013-01-30 15:19:00,51.9,51.4,29.64,SSE,166,6.9,6.9,98,0.00,OVC,,0.00,WeatherDisplay:10.37,2013-01-30 20:19:00,
2013-01-30 15:24:00,51.9,51.4,29.63,SSE,147,9.2,9.2,98,0.00,OVC,,0.00,WeatherDisplay:10.37,2013-01-30 20:24:00,
2013-01-30 15:29:00,51.9,51.4,29.64,SSW,194,2.3,2.3,98,0.00,OVC,,0.00,WeatherDisplay:10.37,2013-01-30 20:29:00,
2013-01-30 15:34:00,51.9,51.4,29.64,SSW,202,8.1,8.1,98,0.00,OVC,,0.00,WeatherDisplay:10.37,2013-01-30 20:34:00,
2013-01-30 15:39:00,52.0,51.5,29.63,SE,136,3.5,3.5,98,0.00,OVC,,0.00,WeatherDisplay:10.37,2013-01-30 20:39:00,
2013-01-30 15:44:00,52.1,51.6,29.64,SSE,151,9.2,9.2,98,0.00,OVC,,0.00,WeatherDisplay:10.37,2013-01-30 20:44:00,
2013-01-30 15:49:00,52.2,51.7,29.63,SSW,213,6.9,6.9,98,0.00,OVC,,0.00,WeatherDisplay:10.37,2013-01-30 20:49:00,
2013-01-30 15:54:00,52.2,51.7,29.63,South,185,8.1,8.1,98,0.00,OVC,,0.00,WeatherDisplay:10.37,2013-01-30 20:54:00,
2013-01-30 15:59:00,52.3,51.8,29.63,SSE,154,9.2,9.2,98,0.00,OVC,,0.00,WeatherDisplay:10.37,2013-01-30 20:59:00,
2013-01-30 16:04:00,52.4,51.9,29.63,SSW,207,6.9,6.9,98,0.00,OVC,,0.00,WeatherDisplay:10.37,2013-01-30 21:04:00,
2013-01-30 16:09:00,52.4,51.9,29.63,ESE,119,5.0,5.0,98,0.00,OVC,,0.00,WeatherDisplay:10.37,2013-01-30 21:09:00,
2013-01-30 16:14:00,52.5,52.0,29.62,WSW,256,3.5,3.5,98,0.00,,,0.00,WeatherDisplay:10.37,2013-01-30 21:14:00,
2013-01-30 16:19:00,52.5,52.0,29.62,ESE,122,11.0,11.0,98,0.00,,,0.00,WeatherDisplay:10.37,2013-01-30 21:19:00,
2013-01-30 16:24:00,52.7,52.2,29.61,ESE,121,9.2,9.2,98,0.00,,,0.00,WeatherDisplay:10.37,2013-01-30 21:24:00,
2013-01-30 16:29:00,52.8,52.3,29.61,South,188,10.4,10.4,98,0.00,,,0.00,WeatherDisplay:10.37,2013-01-30 21:29:00,
2013-01-30 16:34:00,52.8,52.3,29.61,SSE,161,8.1,8.1,98,0.00,,,0.00,WeatherDisplay:10.37,2013-01-30 21:34:00,
2013-01-30 16:39:00,52.8,52.3,29.60,South,169,10.0,10.0,98,0.00,,,0.00,WeatherDisplay:10.37,2013-01-30 21:39:00,
2013-01-30 16:44:00,52.8,52.3,29.60,SSW,193,11.5,11.5,98,0.00,,,0.00,WeatherDisplay:10.37,2013-01-30 21:44:00,
2013-01-30 16:49:00,52.8,52.3,29.60,SSE,162,6.0,6.0,98,0.00,,,0.00,WeatherDisplay:10.37,2013-01-30 21:49:00,
2013-01-30 16:54:00,52.6,51.8,29.60,SSE,167,7.0,7.0,97,0.00,,,0.00,WeatherDisplay:10.37,2013-01-30 21:54:00,
2013-01-30 16:59:00,52.5,51.7,29.60,ESE,123,6.9,6.9,97,0.00,,,0.00,WeatherDisplay:10.37,2013-01-30 21:59:00,
2013-01-30 17:04:00,52.4,51.9,29.60,SSE,153,10.4,10.4,98,0.00,,,0.00,WeatherDisplay:10.37,2013-01-30 22:04:00,
2013-01-30 17:09:00,52.4,51.9,29.60,South,173,8.1,8.1,98,0.00,,,0.00,WeatherDisplay:10.37,2013-01-30 22:09:00,
2013-01-30 17:14:00,52.3,51.8,29.60,SSE,148,6.9,6.9,98,0.00,,,0.00,WeatherDisplay:10.37,2013-01-30 22:14:00,
2013-01-30 17:19:00,52.3,51.8,29.59,SSE,154,9.2,9.2,98,0.00,,,0.00,WeatherDisplay:10.37,2013-01-30 22:19:00,
2013-01-30 17:24:00,52.2,51.7,29.59,South,187,10.4,10.4,98,0.00,,,0.00,WeatherDisplay:10.37,2013-01-30 22:24:00,
2013-01-30 17:29:00,52.1,51.6,29.58,SE,144,9.0,9.0,98,0.00,,,0.00,WeatherDisplay:10.37,2013-01-30 22:29:00,
2013-01-30 17:34:00,52.1,51.6,29.58,ESE,117,10.4,10.4,98,0.00,,,0.00,WeatherDisplay:10.37,2013-01-30 22:34:00,
2013-01-30 17:39:00,52.1,51.6,29.58,SSE,147,9.2,9.2,98,0.00,,,0.00,WeatherDisplay:10.37,2013-01-30 22:39:00,
2013-01-30 17:44:00,52.1,51.6,29.58,South,186,9.0,9.0,98,0.00,,,0.00,WeatherDisplay:10.37,2013-01-30 22:44:00,
2013-01-30 17:49:00,52.1,51.6,29.58,SSE,157,8.1,8.1,98,0.00,,,0.00,WeatherDisplay:10.37,2013-01-30 22:49:00,
2013-01-30 17:54:00,52.1,51.6,29.58,SSW,196,6.9,6.9,98,0.00,,,0.00,WeatherDisplay:10.37,2013-01-30 22:54:00,
2013-01-30 17:59:00,52.0,51.5,29.58,SW,227,3.0,3.0,98,0.00,,,0.00,WeatherDisplay:10.37,2013-01-30 22:59:00,
2013-01-30 18:04:00,52.0,51.5,29.59,SW,215,4.6,4.6,98,0.00,,,0.00,WeatherDisplay:10.37,2013-01-30 23:04:00,
2013-01-30 18:09:00,51.9,51.4,29.60,SW,215,3.5,3.5,98,0.00,,,0.00,WeatherDisplay:10.37,2013-01-30 23:09:00,
2013-01-30 18:14:00,51.9,51.4,29.60,SSW,202,2.3,2.3,98,0.00,,,0.00,WeatherDisplay:10.37,2013-01-30 23:14:00,
2013-01-30 18:19:00,51.9,51.4,29.62,NW,306,3.5,3.5,98,0.01,RA,,0.01,WeatherDisplay:10.37,2013-01-30 23:19:00,
2013-01-30 18:24:00,52.1,51.8,29.61,South,169,6.9,6.9,99,0.02,RA,,0.02,WeatherDisplay:10.37,2013-01-30 23:24:00,
2013-01-30 18:29:00,52.3,52.0,29.61,SSE,156,4.6,4.6,99,0.02,RA,,0.02,WeatherDisplay:10.37,2013-01-30 23:29:00,
2013-01-30 18:34:00,52.5,52.2,29.61,SSE,151,6.9,6.9,99,0.03,RA,,0.03,WeatherDisplay:10.37,2013-01-30 23:34:00,
2013-01-30 18:39:00,52.4,52.1,29.61,SSW,202,5.8,5.8,99,0.03,RA,,0.03,WeatherDisplay:10.37,2013-01-30 23:39:00,
2013-01-30 18:44:00,52.3,52.0,29.60,SE,146,3.5,3.5,99,0.03,CLR,,0.03,WeatherDisplay:10.37,2013-01-30 23:44:00,
2013-01-30 18:49:00,52.2,51.9,29.60,SSE,151,3.5,3.5,99,0.03,,,0.03,WeatherDisplay:10.37,2013-01-30 23:49:00,
2013-01-30 18:54:00,52.2,51.9,29.60,SSE,151,1.1,1.1,99,0.03,CLR,,0.03,WeatherDisplay:10.37,2013-01-30 23:54:00,
2013-01-30 18:59:00,52.1,51.8,29.60,SSE,153,0.0,0.0,99,0.03,CLR,,0.03,WeatherDisplay:10.37,2013-01-30 23:59:00,
2013-01-30 19:04:00,51.9,51.6,29.59,SSE,153,1.1,0.0,99,0.03,,,0.03,WeatherDisplay:10.37,2013-01-31 00:04:00,
2013-01-30 19:09:00,51.7,51.4,29.59,SSE,153,0.0,0.0,99,0.03,,,0.03,WeatherDisplay:10.37,2013-01-31 00:09:00,
2013-01-30 19:14:00,51.4,51.1,29.59,SSE,153,0.0,0.0,99,0.03,OVC,,0.03,WeatherDisplay:10.37,2013-01-31 00:14:00,
2013-01-30 19:19:00,51.3,50.8,29.59,SSE,153,0.0,0.0,98,0.02,OVC,,0.03,WeatherDisplay:10.37,2013-01-31 00:19:00,
2013-01-30 19:24:00,51.2,50.9,29.59,SSE,153,0.0,0.0,99,0.01,OVC,,0.03,WeatherDisplay:10.37,2013-01-31 00:24:00,
2013-01-30 19:29:00,51.1,50.8,29.58,SSE,153,0.0,0.0,99,0.01,OVC,,0.03,WeatherDisplay:10.37,2013-01-31 00:29:00,
2013-01-30 19:34:00,51.1,50.8,29.57,SSE,153,0.0,0.0,99,0.00,OVC,,0.03,WeatherDisplay:10.37,2013-01-31 00:34:00,
2013-01-30 19:39:00,51.1,50.8,29.58,SSE,153,0.0,0.1,99,0.00,OVC,,0.03,WeatherDisplay:10.37,2013-01-31 00:39:00,
2013-01-30 19:44:00,51.0,50.7,29.58,SSE,168,5.0,5.0,99,0.00,OVC,,0.03,WeatherDisplay:10.37,2013-01-31 00:44:00,
2013-01-30 19:49:00,51.4,51.1,29.58,SSE,157,1.1,0.0,99,0.00,OVC,,0.03,WeatherDisplay:10.37,2013-01-31 00:49:00,
2013-01-30 19:54:00,51.7,51.4,29.57,SSE,157,4.0,4.0,99,0.00,OVC,,0.03,WeatherDisplay:10.37,2013-01-31 00:54:00,
2013-01-30 19:59:00,51.9,51.6,29.57,SSW,204,0.0,0.0,99,0.00,OVC,,0.03,WeatherDisplay:10.37,2013-01-31 00:59:00,
2013-01-30 20:04:00,52.0,51.7,29.57,SSW,204,0.0,0.0,99,0.01,RA,,0.04,WeatherDisplay:10.37,2013-01-31 01:04:00,
2013-01-30 20:09:00,52.0,51.7,29.57,South,188,1.1,0.0,99,0.01,RA,,0.04,WeatherDisplay:10.37,2013-01-31 01:09:00,
2013-01-30 20:14:00,51.9,51.6,29.56,South,188,1.1,1.1,99,0.01,,,0.04,WeatherDisplay:10.37,2013-01-31 01:14:00,
2013-01-30 20:19:00,51.9,51.6,29.56,South,188,0.0,0.0,99,0.02,RA,,0.05,WeatherDisplay:10.37,2013-01-31 01:19:00,
2013-01-30 20:24:00,51.8,51.5,29.55,South,188,3.5,3.5,99,0.02,RA,,0.05,WeatherDisplay:10.37,2013-01-31 01:24:00,
2013-01-30 20:29:00,51.7,51.4,29.55,SSE,165,5.0,5.0,99,0.03,RA,,0.06,WeatherDisplay:10.37,2013-01-31 01:29:00,
2013-01-30 20:34:00,51.6,51.3,29.54,SSE,165,3.5,3.5,99,0.03,RA,,0.06,WeatherDisplay:10.37,2013-01-31 01:34:00,
2013-01-30 20:39:00,51.4,51.1,29.54,ESE,102,1.1,1.1,99,0.03,CLR,,0.06,WeatherDisplay:10.37,2013-01-31 01:39:00,
2013-01-30 20:44:00,51.2,50.9,29.54,South,178,2.3,2.3,99,0.03,CLR,,0.06,WeatherDisplay:10.37,2013-01-31 01:44:00,
2013-01-30 20:49:00,51.0,50.7,29.53,SE,142,2.3,2.3,99,0.03,,,0.06,WeatherDisplay:10.37,2013-01-31 01:49:00,
2013-01-30 20:54:00,50.8,50.5,29.53,ESE,121,2.0,2.0,99,0.03,,,0.06,WeatherDisplay:10.37,2013-01-31 01:54:00,
2013-01-30 20:59:00,50.6,50.3,29.53,South,185,3.5,3.5,99,0.03,,,0.06,WeatherDisplay:10.37,2013-01-31 01:59:00,
2013-01-30 21:04:00,50.5,50.2,29.53,SSW,200,1.1,1.1,99,0.02,,,0.06,WeatherDisplay:10.37,2013-01-31 02:04:00,
2013-01-30 21:09:00,50.4,50.1,29.53,SSW,200,0.0,0.0,99,0.02,,,0.06,WeatherDisplay:10.37,2013-01-31 02:09:00,
2013-01-30 21:14:00,50.3,50.0,29.53,SSW,200,2.0,2.0,99,0.02,,,0.06,WeatherDisplay:10.37,2013-01-31 02:14:00,
2013-01-30 21:19:00,50.1,49.8,29.52,SE,130,0.0,0.0,99,0.01,,,0.06,WeatherDisplay:10.37,2013-01-31 02:19:00,
2013-01-30 21:24:00,50.0,49.7,29.51,SE,130,0.0,0.0,99,0.01,,,0.06,WeatherDisplay:10.37,2013-01-31 02:24:00,
2013-01-30 21:29:00,49.9,49.6,29.50,SE,130,1.0,1.0,99,0.00,,,0.06,WeatherDisplay:10.37,2013-01-31 02:29:00,
2013-01-30 21:34:00,49.8,49.5,29.50,SSE,155,2.3,2.3,99,0.00,,,0.06,WeatherDisplay:10.37,2013-01-31 02:34:00,
2013-01-30 21:39:00,49.9,49.6,29.50,SSW,207,3.5,3.5,99,0.00,,,0.06,WeatherDisplay:10.37,2013-01-31 02:39:00,
2013-01-30 21:44:00,50.0,49.7,29.50,SSE,167,4.6,4.6,99,0.00,,,0.06,WeatherDisplay:10.37,2013-01-31 02:44:00,
2013-01-30 21:49:00,50.0,49.7,29.49,SSE,168,4.6,4.6,99,0.00,,,0.06,WeatherDisplay:10.37,2013-01-31 02:49:00,
2013-01-30 21:54:00,50.0,49.7,29.48,SSE,168,4.0,4.0,99,0.00,,,0.06,WeatherDisplay:10.37,2013-01-31 02:54:00,
2013-01-30 21:59:00,49.9,49.6,29.47,SSW,194,0.0,0.0,99,0.00,,,0.06,WeatherDisplay:10.37,2013-01-31 02:59:00,
2013-01-30 22:04:00,50.0,49.7,29.47,South,183,2.0,2.0,99,0.00,,,0.06,WeatherDisplay:10.37,2013-01-31 03:04:00,
2013-01-30 22:09:00,50.2,50.2,29.46,SSE,147,8.0,8.0,100,0.00,,,0.06,WeatherDisplay:10.37,2013-01-31 03:09:00,
2013-01-30 22:14:00,50.5,50.5,29.45,SSW,197,4.6,4.6,100,0.00,,,0.06,WeatherDisplay:10.37,2013-01-31 03:14:00,
2013-01-30 22:19:00,50.6,50.6,29.45,South,181,5.8,5.8,100,0.00,,,0.06,WeatherDisplay:10.37,2013-01-31 03:19:00,
2013-01-30 22:24:00,51.0,51.0,29.45,South,190,3.5,3.5,100,0.00,,,0.06,WeatherDisplay:10.37,2013-01-31 03:24:00,
2013-01-30 22:29:00,51.2,51.2,29.45,SE,146,11.5,11.5,100,0.00,,,0.06,WeatherDisplay:10.37,2013-01-31 03:29:00,
2013-01-30 22:34:00,51.5,51.5,29.45,SE,135,6.0,6.0,100,0.00,,,0.06,WeatherDisplay:10.37,2013-01-31 03:34:00,
2013-01-30 22:39:00,51.8,51.8,29.44,SSE,163,9.2,9.2,100,0.00,,,0.06,WeatherDisplay:10.37,2013-01-31 03:39:00,
2013-01-30 22:44:00,52.0,52.0,29.43,SSE,167,6.9,6.9,100,0.00,,,0.06,WeatherDisplay:10.37,2013-01-31 03:44:00,
2013-01-30 22:49:00,52.1,52.1,29.42,SSW,198,7.0,7.0,100,0.00,,,0.06,WeatherDisplay:10.37,2013-01-31 03:49:00,
2013-01-30 22:54:00,52.3,52.3,29.42,South,187,9.0,9.0,100,0.00,,,0.06,WeatherDisplay:10.37,2013-01-31 03:54:00,
2013-01-30 22:59:00,52.4,52.4,29.42,SSW,198,8.1,8.1,100,0.00,,,0.06,WeatherDisplay:10.37,2013-01-31 03:59:00,
2013-01-30 23:04:00,52.5,52.5,29.41,SSE,153,9.0,9.0,100,0.00,,,0.06,WeatherDisplay:10.37,2013-01-31 04:04:00,
2013-01-30 23:09:00,52.8,52.8,29.41,South,173,8.1,8.1,100,0.00,,,0.06,WeatherDisplay:10.37,2013-01-31 04:09:00,
2013-01-30 23:14:00,52.9,52.9,29.40,South,185,9.2,9.2,100,0.00,,,0.06,WeatherDisplay:10.37,2013-01-31 04:14:00,
2013-01-30 23:19:00,53.0,53.0,29.40,ESE,113,11.5,11.5,100,0.00,,,0.06,WeatherDisplay:10.37,2013-01-31 04:19:00,
2013-01-30 23:24:00,53.1,53.1,29.39,SE,124,11.5,11.5,100,0.00,,,0.06,WeatherDisplay:10.37,2013-01-31 04:24:00,
2013-01-30 23:29:00,53.3,53.3,29.39,SSE,163,11.5,11.5,100,0.00,CLR,,0.06,WeatherDisplay:10.37,2013-01-31 04:29:00,
2013-01-30 23:34:00,53.4,53.4,29.38,SSW,198,11.5,11.5,100,0.00,CLR,,0.06,WeatherDisplay:10.37,2013-01-31 04:34:00,
2013-01-30 23:39:00,53.4,53.4,29.38,SE,137,11.0,11.0,100,0.00,CLR,,0.06,WeatherDisplay:10.37,2013-01-31 04:39:00,
2013-01-30 23:44:00,53.5,53.5,29.38,SW,216,9.2,9.2,100,0.00,CLR,,0.06,WeatherDisplay:10.37,2013-01-31 04:44:00,
2013-01-30 23:49:00,53.6,53.6,29.37,South,171,9.2,9.2,100,0.00,CLR,,0.06,WeatherDisplay:10.37,2013-01-31 04:49:00,
2013-01-30 23:54:00,53.8,53.8,29.36,SE,136,11.5,11.5,100,0.00,CLR,,0.06,WeatherDisplay:10.37,2013-01-31 04:54:00,
2013-01-30 23:59:00,53.9,53.9,29.36,WSW,238,11.5,11.5,100,0.00,CLR,,0.06,WeatherDisplay:10.37,2013-01-31 04:59:00,